RYR621J LIMC-LOWW

Flight info

Callsign RYR621J
Flight time 1h 3m
Altitude 34000
Route OSKOR DCT NESTI DCT ARALD/N0454F330 DCT ABTAN ABTAN2W
Aircraft B738/M-SDE2E3FGHIRWXY/LB1

Departure

Time 2026-04-21 20:15
Airport Milan Malpensa International Airport (LIMC)

Arrival

Time 2026-04-21 21:19
Airport Vienna International Airport (LOWW)
Time Latitude Longitude Altitude Speed Heading
2026-04-21 19:42 45.62772 8.71675 715 ft 0 kts 259°
2026-04-21 19:58 45.62773 8.71688 719 ft 4 kts 257°
2026-04-21 19:58 45.62780 8.71725 718 ft 4 kts 251°
2026-04-21 19:58 45.62791 8.71760 719 ft 4 kts 237°
2026-04-21 19:58 45.62807 8.71785 719 ft 4 kts 193°
2026-04-21 19:59 45.62816 8.71787 720 ft 1 kts 169°
2026-04-21 20:04 45.62815 8.71787 715 ft 2 kts 169°
2026-04-21 20:04 45.62771 8.71799 716 ft 12 kts 169°
2026-04-21 20:04 45.62660 8.71830 719 ft 20 kts 169°
2026-04-21 20:05 45.62512 8.71873 719 ft 24 kts 168°
2026-04-21 20:05 45.62367 8.71913 719 ft 21 kts 169°
2026-04-21 20:05 45.62208 8.71955 717 ft 23 kts 169°
2026-04-21 20:05 45.62048 8.72001 720 ft 23 kts 170°
2026-04-21 20:06 45.61888 8.72045 719 ft 23 kts 169°
2026-04-21 20:06 45.61740 8.72085 717 ft 21 kts 169°
2026-04-21 20:06 45.61594 8.72127 718 ft 22 kts 168°
2026-04-21 20:06 45.61440 8.72170 716 ft 24 kts 169°
2026-04-21 20:07 45.61265 8.72219 717 ft 27 kts 169°
2026-04-21 20:07 45.61075 8.72271 712 ft 28 kts 169°
2026-04-21 20:07 45.60912 8.72314 706 ft 21 kts 169°
2026-04-21 20:07 45.60781 8.72350 704 ft 18 kts 169°
2026-04-21 20:08 45.60650 8.72442 694 ft 24 kts 114°
2026-04-21 20:08 45.60630 8.72666 695 ft 22 kts 97°
2026-04-21 20:08 45.60611 8.72891 689 ft 20 kts 96°
2026-04-21 20:08 45.60597 8.73096 694 ft 21 kts 95°
2026-04-21 20:09 45.60645 8.73281 693 ft 21 kts 31°
2026-04-21 20:09 45.60770 8.73353 693 ft 17 kts 19°
2026-04-21 20:09 45.60884 8.73404 701 ft 17 kts
2026-04-21 20:09 45.61001 8.73378 699 ft 18 kts 349°
2026-04-21 20:10 45.61130 8.73342 715 ft 19 kts 349°
2026-04-21 20:10 45.61268 8.73305 717 ft 21 kts 349°
2026-04-21 20:10 45.61404 8.73267 718 ft 19 kts 350°
2026-04-21 20:10 45.61534 8.73235 719 ft 18 kts 349°
2026-04-21 20:11 45.61619 8.73273 716 ft 12 kts 72°
2026-04-21 20:11 45.61634 8.73392 720 ft 12 kts 87°
2026-04-21 20:11 45.61632 8.73423 718 ft 0 kts 100°
2026-04-21 20:13 45.61631 8.73428 717 ft 1 kts 103°
2026-04-21 20:13 45.61631 8.73429 717 ft 1 kts 103°
2026-04-21 20:13 45.61616 8.73480 718 ft 10 kts 116°
2026-04-21 20:13 45.61587 8.73617 716 ft 19 kts 87°
2026-04-21 20:14 45.61650 8.73729 716 ft 10 kts 349°
2026-04-21 20:14 45.61663 8.73725 718 ft 1 kts 349°
2026-04-21 20:14 45.61852 8.73672 718 ft 67 kts 349°
2026-04-21 20:14 45.62559 8.73482 719 ft 140 kts 347°
2026-04-21 20:15 45.63665 8.73145 1098 ft 176 kts 350°
2026-04-21 20:15 45.64913 8.72805 1976 ft 187 kts 354°
2026-04-21 20:15 45.66256 8.72919 2696 ft 199 kts 26°
2026-04-21 20:15 45.67287 8.74180 3365 ft 197 kts 60°
2026-04-21 20:16 45.67890 8.75952 3987 ft 201 kts 70°
2026-04-21 20:16 45.68413 8.77839 4580 ft 207 kts 69°
2026-04-21 20:16 45.69252 8.79523 5189 ft 213 kts 40°
2026-04-21 20:16 45.70423 8.80828 5870 ft 215 kts 40°
2026-04-21 20:17 45.71572 8.82229 6427 ft 222 kts 50°
2026-04-21 20:17 45.72184 8.84324 6616 ft 241 kts 85°
2026-04-21 20:17 45.72286 8.86819 6862 ft 264 kts 87°
2026-04-21 20:17 45.72384 8.89518 7379 ft 278 kts 87°
2026-04-21 20:18 45.72458 8.91357 7928 ft 280 kts 86°
2026-04-21 20:18 45.72625 8.95122 9038 ft 288 kts 85°
2026-04-21 20:18 45.72767 8.98001 9899 ft 292 kts 85°
2026-04-21 20:18 45.72921 9.00937 10493 ft 305 kts 84°
2026-04-21 20:19 45.73093 9.04091 10684 ft 331 kts 84°
2026-04-21 20:19 45.73284 9.07490 10999 ft 351 kts 84°
2026-04-21 20:19 45.73483 9.10996 11552 ft 362 kts 84°
2026-04-21 20:19 45.73690 9.14630 12236 ft 369 kts 84°
2026-04-21 20:20 45.73900 9.18328 12927 ft 376 kts 84°
2026-04-21 20:20 45.74114 9.22084 13632 ft 382 kts 84°
2026-04-21 20:20 45.74332 9.25916 14246 ft 389 kts 83°
2026-04-21 20:20 45.74553 9.29799 14892 ft 394 kts 83°
2026-04-21 20:21 45.74776 9.33741 15548 ft 400 kts 83°
2026-04-21 20:21 45.75000 9.37726 16167 ft 405 kts 83°
2026-04-21 20:21 45.75227 9.41781 16784 ft 411 kts 83°
2026-04-21 20:21 45.75456 9.45896 17406 ft 417 kts 82°
2026-04-21 20:22 45.75687 9.50074 18015 ft 422 kts 82°
2026-04-21 20:22 45.76151 9.58576 19045 ft 433 kts 82°
2026-04-21 20:22 45.76386 9.62903 19576 ft 439 kts 82°
2026-04-21 20:23 45.76626 9.67293 20110 ft 444 kts 82°
2026-04-21 20:23 45.76862 9.71728 20617 ft 450 kts 82°
2026-04-21 20:23 45.77093 9.76154 21186 ft 454 kts 81°
2026-04-21 20:23 45.77329 9.80694 21619 ft 460 kts 81°
2026-04-21 20:24 45.77571 9.85304 22083 ft 467 kts 81°
2026-04-21 20:24 45.77819 9.89956 22621 ft 470 kts 81°
2026-04-21 20:24 45.78061 9.94641 23116 ft 474 kts 81°
2026-04-21 20:24 45.78300 9.99381 23547 ft 480 kts 81°
2026-04-21 20:25 45.78532 10.04069 23906 ft 485 kts 81°
2026-04-21 20:25 45.78771 10.08900 24406 ft 487 kts 81°
2026-04-21 20:25 45.79011 10.13751 24866 ft 490 kts 81°
2026-04-21 20:25 45.79251 10.18644 25270 ft 494 kts 81°
2026-04-21 20:26 45.79490 10.23570 25637 ft 497 kts 80°
2026-04-21 20:26 45.79727 10.28529 25973 ft 500 kts 81°
2026-04-21 20:26 45.79968 10.33523 26345 ft 504 kts 80°
2026-04-21 20:26 45.80242 10.38553 26743 ft 505 kts 76°
2026-04-21 20:27 45.80898 10.43462 27108 ft 500 kts 68°
2026-04-21 20:27 45.82021 10.48142 27443 ft 491 kts 57°
2026-04-21 20:27 45.83469 10.52557 27814 ft 490 kts 56°
2026-04-21 20:27 45.84950 10.56963 28134 ft 492 kts 55°
2026-04-21 20:28 45.86441 10.61392 28450 ft 495 kts 55°
2026-04-21 20:28 45.87936 10.65871 28677 ft 500 kts 55°
2026-04-21 20:28 45.89431 10.70400 29052 ft 503 kts 56°
2026-04-21 20:28 45.90904 10.74955 29552 ft 503 kts 56°
2026-04-21 20:29 45.92379 10.79513 29945 ft 504 kts 56°
2026-04-21 20:29 45.93857 10.84083 30256 ft 505 kts 56°
2026-04-21 20:29 45.95331 10.88660 30662 ft 503 kts 56°
2026-04-21 20:29 45.96778 10.93183 31265 ft 495 kts 56°
2026-04-21 20:30 45.98220 10.97688 31601 ft 496 kts 56°
2026-04-21 20:30 45.99643 11.02122 31862 ft 499 kts 56°
2026-04-21 20:30 46.00608 11.05128 32126 ft 498 kts 56°
2026-04-21 20:30 46.02049 11.09640 32571 ft 495 kts 56°
2026-04-21 20:31 46.03480 11.14128 33054 ft 493 kts 58°
2026-04-21 20:31 46.04904 11.18600 33539 ft 491 kts 58°
2026-04-21 20:31 46.06319 11.23051 33967 ft 488 kts 58°
2026-04-21 20:31 46.07735 11.27506 34034 ft 492 kts 58°
2026-04-21 20:32 46.10591 11.36510 34051 ft 493 kts 58°
2026-04-21 20:32 46.13399 11.45428 34050 ft 486 kts 58°
2026-04-21 20:33 46.16178 11.54271 34074 ft 487 kts 58°
2026-04-21 20:33 46.18975 11.63186 34066 ft 489 kts 58°
2026-04-21 20:34 46.21794 11.72206 34080 ft 490 kts 59°
2026-04-21 20:34 46.24574 11.81145 34056 ft 491 kts 59°
2026-04-21 20:35 46.27363 11.90147 34079 ft 491 kts 59°
2026-04-21 20:35 46.30158 11.99202 34058 ft 492 kts 59°
2026-04-21 20:36 46.32901 12.08115 34084 ft 489 kts 59°
2026-04-21 20:36 46.35666 12.17123 34084 ft 490 kts 60°
2026-04-21 20:37 46.38423 12.26145 34083 ft 489 kts 60°
2026-04-21 20:37 46.41173 12.35172 34090 ft 491 kts 60°
2026-04-21 20:38 46.43922 12.44233 34089 ft 491 kts 60°
2026-04-21 20:38 46.46648 12.53253 34091 ft 491 kts 60°
2026-04-21 20:39 46.49383 12.62330 34110 ft 491 kts 60°
2026-04-21 20:39 46.52106 12.71395 34114 ft 489 kts 60°
2026-04-21 20:40 46.54808 12.80437 34105 ft 486 kts 61°
2026-04-21 20:40 46.57488 12.89441 34120 ft 485 kts 61°
2026-04-21 20:41 46.60160 12.98436 34118 ft 484 kts 61°
2026-04-21 20:41 46.62799 13.07354 34131 ft 485 kts 61°
2026-04-21 20:42 46.65462 13.16388 34120 ft 486 kts 62°
2026-04-21 20:42 46.68116 13.25422 34114 ft 485 kts 61°
2026-04-21 20:43 46.71044 13.34212 34122 ft 480 kts 57°
2026-04-21 20:43 46.74169 13.42801 34136 ft 479 kts 56°
2026-04-21 20:44 46.77279 13.51399 34140 ft 479 kts 57°
2026-04-21 20:44 46.80348 13.60031 34136 ft 479 kts 58°
2026-04-21 20:45 46.83389 13.68675 34140 ft 478 kts 58°
2026-04-21 20:45 46.86411 13.77300 34135 ft 476 kts 58°
2026-04-21 20:46 46.89427 13.85919 34140 ft 476 kts 58°
2026-04-21 20:46 46.92431 13.94534 34142 ft 476 kts 58°
2026-04-21 20:47 46.95374 14.02996 34165 ft 475 kts 59°
2026-04-21 20:47 46.98366 14.11637 34146 ft 475 kts 59°
2026-04-21 20:48 47.01352 14.20282 33878 ft 478 kts 59°
2026-04-21 20:48 47.02845 14.24616 33603 ft 475 kts 59°
2026-04-21 20:48 47.04330 14.28937 33334 ft 473 kts 59°
2026-04-21 20:49 47.05811 14.33250 33098 ft 475 kts 59°
2026-04-21 20:49 47.07294 14.37580 32824 ft 475 kts 59°
2026-04-21 20:49 47.08777 14.41911 32571 ft 475 kts 59°
2026-04-21 20:49 47.10261 14.46252 32311 ft 475 kts 60°
2026-04-21 20:50 47.11681 14.50636 32073 ft 478 kts 66°
2026-04-21 20:50 47.12631 14.55332 31826 ft 481 kts 73°
2026-04-21 20:50 47.13367 14.60125 31589 ft 481 kts 75°
2026-04-21 20:50 47.14084 14.64927 31339 ft 481 kts 74°
2026-04-21 20:51 47.14840 14.69700 31088 ft 480 kts 73°
2026-04-21 20:51 47.15638 14.74455 30842 ft 478 kts 73°
2026-04-21 20:51 47.16449 14.79187 30603 ft 477 kts 73°
2026-04-21 20:51 47.17259 14.83908 30365 ft 475 kts 73°
2026-04-21 20:52 47.18060 14.88612 30106 ft 474 kts 73°
2026-04-21 20:52 47.18855 14.93299 29811 ft 471 kts 73°
2026-04-21 20:52 47.19643 14.97965 29517 ft 469 kts 73°
2026-04-21 20:52 47.20406 15.02502 29244 ft 466 kts 73°
2026-04-21 20:53 47.21179 15.07107 28952 ft 463 kts 73°
2026-04-21 20:53 47.21946 15.11687 28586 ft 458 kts 73°
2026-04-21 20:53 47.22698 15.16196 28118 ft 452 kts 73°
2026-04-21 20:53 47.23444 15.20674 27595 ft 447 kts 73°
2026-04-21 20:54 47.24167 15.25026 27132 ft 442 kts 73°
2026-04-21 20:54 47.24892 15.29395 26623 ft 438 kts 73°
2026-04-21 20:54 47.25608 15.33728 26152 ft 433 kts 73°
2026-04-21 20:54 47.26319 15.38034 25666 ft 430 kts 73°
2026-04-21 20:55 47.27023 15.42306 25198 ft 427 kts 73°
2026-04-21 20:55 47.27717 15.46537 24723 ft 424 kts 74°
2026-04-21 20:55 47.28406 15.50741 24263 ft 421 kts 74°
2026-04-21 20:55 47.29087 15.54914 23799 ft 418 kts 74°
2026-04-21 20:56 47.29763 15.59058 23250 ft 415 kts 74°
2026-04-21 20:56 47.30432 15.63179 22745 ft 411 kts 74°
2026-04-21 20:56 47.31093 15.67254 22283 ft 406 kts 74°
2026-04-21 20:56 47.31745 15.71287 21839 ft 402 kts 74°
2026-04-21 20:57 47.32389 15.75282 21360 ft 399 kts 74°
2026-04-21 20:57 47.33028 15.79247 20882 ft 396 kts 74°
2026-04-21 20:57 47.33660 15.83183 20444 ft 393 kts 74°
2026-04-21 20:57 47.34287 15.87093 20000 ft 390 kts 74°
2026-04-21 20:58 47.34907 15.90968 19539 ft 387 kts 74°
2026-04-21 20:58 47.35520 15.94812 19111 ft 384 kts 74°
2026-04-21 20:58 47.36155 15.98613 18675 ft 380 kts 69°
2026-04-21 20:58 47.37325 16.01872 18209 ft 370 kts 47°
2026-04-21 20:59 47.39190 16.04380 17892 ft 359 kts 31°
2026-04-21 20:59 47.41397 16.05974 17597 ft 349 kts 17°
2026-04-21 20:59 47.43696 16.07135 17312 ft 352 kts 15°
2026-04-21 20:59 47.46038 16.08252 17018 ft 355 kts 15°
2026-04-21 21:00 47.48389 16.09369 16712 ft 355 kts 15°
2026-04-21 21:00 47.50726 16.10494 16412 ft 350 kts 15°
2026-04-21 21:00 47.53033 16.11619 16132 ft 348 kts 16°
2026-04-21 21:00 47.55324 16.12747 15849 ft 345 kts 17°
2026-04-21 21:01 47.57597 16.13872 15568 ft 344 kts 17°
2026-04-21 21:01 47.59866 16.14999 15292 ft 343 kts 17°
2026-04-21 21:01 47.62125 16.16124 15009 ft 343 kts 17°
2026-04-21 21:01 47.64386 16.17252 14724 ft 343 kts 17°
2026-04-21 21:02 47.66648 16.18383 14445 ft 343 kts 17°
2026-04-21 21:02 47.68907 16.19512 14165 ft 342 kts 17°
2026-04-21 21:02 47.71163 16.20641 13867 ft 342 kts 17°
2026-04-21 21:02 47.73410 16.21766 13558 ft 340 kts 17°
2026-04-21 21:03 47.75631 16.22906 13255 ft 336 kts 21°
2026-04-21 21:03 47.77565 16.24724 12998 ft 334 kts 41°
2026-04-21 21:03 47.79181 16.27205 12731 ft 334 kts 45°
2026-04-21 21:03 47.80739 16.29756 12447 ft 333 kts 46°
2026-04-21 21:04 47.82293 16.32303 12167 ft 332 kts 45°
2026-04-21 21:04 47.83854 16.34827 11891 ft 330 kts 45°
2026-04-21 21:04 47.85413 16.37327 11612 ft 329 kts 45°
2026-04-21 21:04 47.86960 16.39800 11343 ft 323 kts 45°
2026-04-21 21:05 47.88328 16.42413 11044 ft 319 kts 61°
2026-04-21 21:05 47.89054 16.45516 10808 ft 315 kts 72°
2026-04-21 21:05 47.89393 16.48704 10505 ft 314 kts 92°
2026-04-21 21:05 47.88806 16.51811 10269 ft 313 kts 116°
2026-04-21 21:06 47.87461 16.54318 10138 ft 308 kts 137°
2026-04-21 21:06 47.85694 16.55931 10095 ft 291 kts 158°
2026-04-21 21:06 47.83772 16.56825 9580 ft 290 kts 163°
2026-04-21 21:06 47.81858 16.57593 9282 ft 282 kts 163°
2026-04-21 21:07 47.79977 16.58333 9020 ft 276 kts 163°
2026-04-21 21:07 47.78119 16.59085 8678 ft 278 kts 163°
2026-04-21 21:07 47.76255 16.59851 8383 ft 275 kts 162°
2026-04-21 21:07 47.74444 16.60599 8138 ft 266 kts 162°
2026-04-21 21:08 47.72695 16.61322 7930 ft 254 kts 162°
2026-04-21 21:08 47.71058 16.62025 7821 ft 235 kts 156°
2026-04-21 21:08 47.69771 16.63345 7428 ft 222 kts 123°
2026-04-21 21:08 47.69224 16.65396 6977 ft 213 kts 89°
2026-04-21 21:09 47.69319 16.67526 6663 ft 208 kts 79°
2026-04-21 21:09 47.69499 16.69644 6303 ft 206 kts 79°
2026-04-21 21:09 47.69687 16.71747 6006 ft 204 kts 77°
2026-04-21 21:09 47.70274 16.73635 5968 ft 204 kts 40°
2026-04-21 21:10 47.71545 16.74370 5983 ft 198 kts 360°
2026-04-21 21:10 47.72876 16.74085 5981 ft 189 kts 352°
2026-04-21 21:10 47.74162 16.73704 5977 ft 190 kts 350°
2026-04-21 21:10 47.75458 16.73241 5983 ft 193 kts 348°
2026-04-21 21:11 47.76764 16.72728 5990 ft 194 kts 347°
2026-04-21 21:11 47.78072 16.72192 5983 ft 195 kts 347°
2026-04-21 21:11 47.79380 16.71645 5978 ft 195 kts 347°
2026-04-21 21:11 47.80685 16.71094 5976 ft 195 kts 347°
2026-04-21 21:12 47.81984 16.70543 5980 ft 193 kts 347°
2026-04-21 21:12 47.83271 16.69997 5884 ft 194 kts 347°
2026-04-21 21:12 47.84577 16.69443 5642 ft 196 kts 347°
2026-04-21 21:12 47.85887 16.68886 5373 ft 193 kts 347°
2026-04-21 21:13 47.87137 16.68354 5112 ft 186 kts 347°
2026-04-21 21:13 47.88357 16.67835 4854 ft 179 kts 347°
2026-04-21 21:13 47.89536 16.67334 4616 ft 173 kts 347°
2026-04-21 21:13 47.90680 16.66849 4380 ft 169 kts 348°
2026-04-21 21:14 47.91802 16.66373 4153 ft 167 kts 348°
2026-04-21 21:14 47.92923 16.65899 3927 ft 168 kts 348°
2026-04-21 21:14 47.94039 16.65428 3685 ft 165 kts 348°
2026-04-21 21:14 47.95136 16.64958 3481 ft 165 kts 348°
2026-04-21 21:15 47.96242 16.64489 3236 ft 166 kts 348°
2026-04-21 21:15 47.97354 16.64021 3025 ft 167 kts 348°
2026-04-21 21:15 47.98468 16.63544 2794 ft 167 kts 349°
2026-04-21 21:15 47.99573 16.63075 2563 ft 164 kts 349°
2026-04-21 21:16 48.00292 16.62770 2413 ft 162 kts 349°
2026-04-21 21:16 48.01704 16.62170 2144 ft 149 kts 348°
2026-04-21 21:16 48.02335 16.61901 2008 ft 137 kts 348°
2026-04-21 21:16 48.03202 16.61534 1807 ft 126 kts 348°
2026-04-21 21:17 48.04054 16.61175 1637 ft 129 kts 348°
2026-04-21 21:17 48.04915 16.60806 1433 ft 127 kts 346°
2026-04-21 21:17 48.05760 16.60444 1243 ft 125 kts 345°
2026-04-21 21:17 48.06595 16.60115 1053 ft 124 kts 340°
2026-04-21 21:18 48.07426 16.59744 883 ft 125 kts 342°
2026-04-21 21:18 48.08266 16.59396 726 ft 125 kts 339°
2026-04-21 21:18 48.09099 16.59034 635 ft 123 kts 341°
2026-04-21 21:18 48.09812 16.58725 628 ft 86 kts 343°
2026-04-21 21:19 48.10229 16.58550 616 ft 47 kts 344°
2026-04-21 21:19 48.10420 16.58370 610 ft 24 kts 305°
2026-04-21 21:19 48.10475 16.58231 623 ft 0 kts 313°
2026-04-21 21:19 48.10475 16.58229 623 ft 1 kts 309°
2026-04-21 21:20 48.10502 16.58179 622 ft 11 kts 315°
2026-04-21 21:20 48.10605 16.58117 621 ft 22 kts 343°
2026-04-21 21:20 48.10761 16.58050 612 ft 25 kts 344°
2026-04-21 21:20 48.10931 16.57979 612 ft 26 kts 345°
2026-04-21 21:21 48.11084 16.57903 619 ft 25 kts 322°
2026-04-21 21:21 48.11173 16.57667 618 ft 26 kts 297°
2026-04-21 21:21 48.11255 16.57412 624 ft 27 kts 295°
2026-04-21 21:21 48.11390 16.57378 615 ft 25 kts
2026-04-21 21:22 48.11489 16.57234 614 ft 18 kts 284°
2026-04-21 21:22 48.11513 16.57064 619 ft 13 kts 244°
2026-04-21 21:22 48.11476 16.57022 611 ft 5 kts 207°
2026-04-21 21:22 48.11475 16.57020 611 ft 0 kts 207°